Fredericksburg, TX

6:52 AM CDT on April 22, 2018 (GMT -0500)
Fredericksburg

Weather History for KT82 - May, 2013

Change the Weather History Date:

Monday, May 20, 2013

  Actual Average (KSAT) Record (KSAT)
Temperature  
Mean Temperature 80 °F -  
Max Temperature 90 °F 85 °F 100 °F (1996)
Min Temperature 69 °F 66 °F 49 °F (2002)
Cooling Degree Days 14    
Growing Degree Days 30 (Base 50)    
Moisture  
Dew Point 67 °F    
Average Humidity 67    
Maximum Humidity 89    
Minimum Humidity 43    
Precipitation  
Precipitation 0.00 in - - ()
Sea Level Pressure  
Sea Level Pressure 29.81 in    
Wind  
Wind Speed 9 mph (SSE)    
Max Wind Speed 18 mph    
Max Gust Speed 24 mph    
Visibility 10 miles    
Events      
Averages and records for this station are not official NWS values.
T = Trace of Precipitation, MM = Missing Value Source: NWS Daily Summary

Daily Weather History Graph

Daily Weather History Graph

Search for Another Location

Airport or City:

Astronomy

May. 20, 2013 Rise Set
Actual Time 6:38 AM CDT 8:25 PM CDT
Civil Twilight 6:12 AM CDT 8:52 PM CDT
Nautical Twilight 5:40 AM CDT 9:24 PM CDT
Astronomical Twilight 5:06 AM CDT 9:58 PM CDT
Moon 3:53 PM CDT (5/20) 3:13 AM CDT (5/20)
Length of Visible Light 14h 40m
Length of Day
13h 47m
Waxing Gibbous, 75% of the Moon is Illuminated
May 20
Waxing Gibbous
May 24
Full
May 31
Last Quarter
Jun 8
New
Jun 16
First Quarter

Hourly Weather History & Observations

Time (CDT) Temp. Heat Index Dew Point Humidity Pressure Visibility Wind Dir Wind Speed Gust Speed Precip Events Conditions
12:15 AM 73.9 °F - 65.5 °F 75% 29.85 in 10.0 mi SSE 5.8 mph - N/A   Clear
12:35 AM 73.0 °F - 65.8 °F 78% 29.85 in 10.0 mi SSE 9.2 mph - N/A   Clear
12:55 AM 72.7 °F - 66.2 °F 80% 29.85 in 10.0 mi South 8.1 mph 17.3 mph N/A   Clear
1:15 AM 72.1 °F - 66.4 °F 82% 29.85 in 10.0 mi South 6.9 mph - N/A   Clear
1:35 AM 71.6 °F - 66.6 °F 84% 29.85 in 10.0 mi SSE 6.9 mph - N/A   Clear
1:55 AM 71.2 °F - 67.1 °F 87% 29.85 in 10.0 mi SSE 6.9 mph - N/A   Mostly Cloudy
2:15 AM 71.2 °F - 67.1 °F 87% 29.84 in 10.0 mi SSE 5.8 mph - N/A   Overcast
2:35 AM 70.9 °F - 67.3 °F 88% 29.83 in 10.0 mi South 10.4 mph - N/A   Mostly Cloudy
3:15 AM 70.9 °F - 67.3 °F 88% 29.82 in 10.0 mi SSE 6.9 mph - N/A   Mostly Cloudy
3:35 AM 70.7 °F - 67.1 °F 88% 29.82 in 10.0 mi SSE 6.9 mph - N/A   Scattered Clouds
3:55 AM 70.0 °F - 66.7 °F 89% 29.82 in 10.0 mi South 8.1 mph - N/A   Clear
4:35 AM 70.0 °F - 66.6 °F 89% 29.82 in 10.0 mi South 9.2 mph - N/A   Mostly Cloudy
4:55 AM 69.8 °F - 66.4 °F 89% 29.82 in 10.0 mi South 8.1 mph - N/A   Mostly Cloudy
5:15 AM 69.8 °F - 66.2 °F 88% 29.82 in 10.0 mi South 6.9 mph - N/A   Mostly Cloudy
5:35 AM 69.8 °F - 66.4 °F 89% 29.82 in 10.0 mi South 8.1 mph - N/A   Mostly Cloudy
5:55 AM 69.8 °F - 66.4 °F 89% 29.82 in 10.0 mi South 5.8 mph - N/A   Overcast
6:15 AM 69.8 °F - 66.2 °F 88% 29.83 in 10.0 mi South 8.1 mph - N/A   Overcast
6:35 AM 69.8 °F - 66.2 °F 88% 29.84 in 10.0 mi South 8.1 mph - N/A   Overcast
7:15 AM 70.0 °F - 66.2 °F 88% 29.85 in 10.0 mi South 9.2 mph - N/A   Overcast
7:35 AM 70.3 °F - 66.2 °F 87% 29.85 in 10.0 mi South 10.4 mph - N/A   Overcast
7:55 AM 70.7 °F - 66.2 °F 86% 29.85 in 10.0 mi South 8.1 mph - N/A   Overcast
8:15 AM 71.2 °F - 66.2 °F 84% 29.86 in 10.0 mi South 10.4 mph - N/A   Overcast
8:35 AM 72.0 °F - 66.2 °F 82% 29.86 in 10.0 mi South 10.4 mph - N/A   Mostly Cloudy
9:15 AM 74.7 °F - 66.4 °F 75% 29.87 in 10.0 mi SSW 13.8 mph 20.7 mph N/A   Mostly Cloudy
9:35 AM 75.2 °F - 66.2 °F 73% 29.87 in 10.0 mi South 10.4 mph - N/A   Scattered Clouds
9:55 AM 75.9 °F - 66.2 °F 72% 29.86 in 10.0 mi South 13.8 mph 20.7 mph N/A   Scattered Clouds
10:35 AM 78.6 °F - 66.9 °F 67% 29.86 in 10.0 mi South 18.4 mph - N/A   Scattered Clouds
10:55 AM 79.2 °F - 67.3 °F 67% 29.85 in 10.0 mi South 15.0 mph 18.4 mph N/A   Scattered Clouds
11:15 AM 79.2 °F - 67.6 °F 68% 29.85 in 10.0 mi South 13.8 mph 17.3 mph N/A   Mostly Cloudy
11:35 AM 79.9 °F - 68.0 °F 67% 29.86 in 10.0 mi South 11.5 mph - N/A   Mostly Cloudy
11:55 AM 81.3 °F 84.3 °F 68.4 °F 65% 29.86 in 10.0 mi South 12.7 mph 21.9 mph N/A   Mostly Cloudy
12:15 PM 81.5 °F 84.6 °F 68.5 °F 65% 29.85 in 10.0 mi South 11.5 mph 18.4 mph N/A   Mostly Cloudy
12:35 PM 82.6 °F 85.9 °F 68.9 °F 63% 29.84 in 10.0 mi South 10.4 mph - N/A   Scattered Clouds
12:55 PM 83.5 °F 86.9 °F 68.9 °F 61% 29.83 in 10.0 mi South 10.4 mph 16.1 mph N/A   Scattered Clouds
1:15 PM 85.3 °F 89.1 °F 69.1 °F 58% 29.83 in 10.0 mi South 11.5 mph - N/A   Scattered Clouds
1:55 PM 86.5 °F 90.3 °F 68.7 °F 55% 29.82 in 10.0 mi SSE 8.1 mph 17.3 mph N/A   Mostly Cloudy
2:15 PM 87.4 °F 90.8 °F 68.0 °F 52% 29.82 in 10.0 mi SSE 9.2 mph 19.6 mph N/A   Mostly Cloudy
2:35 PM 89.1 °F 92.5 °F 67.6 °F 49% 29.81 in 10.0 mi South 13.8 mph 18.4 mph N/A   Scattered Clouds
2:55 PM 89.6 °F 92.6 °F 67.1 °F 47% 29.80 in 10.0 mi South 6.9 mph 19.6 mph N/A   Scattered Clouds
3:15 PM 89.6 °F 92.2 °F 66.4 °F 46% 29.79 in 10.0 mi SSE 11.5 mph 23.0 mph N/A   Clear
3:35 PM 89.8 °F 92.1 °F 66.0 °F 45% 29.79 in 10.0 mi South 12.7 mph 20.7 mph N/A   Scattered Clouds
3:55 PM 89.6 °F 91.8 °F 65.7 °F 45% 29.78 in 10.0 mi South 12.7 mph 19.6 mph N/A   Scattered Clouds
4:15 PM 90.3 °F 92.6 °F 65.5 °F 44% 29.78 in 10.0 mi SE 10.4 mph - N/A   Clear
4:35 PM 90.1 °F 92.0 °F 65.1 °F 43% 29.77 in 10.0 mi SSE 13.8 mph 18.4 mph N/A   Scattered Clouds
4:55 PM 90.5 °F 92.5 °F 64.9 °F 43% 29.75 in 10.0 mi SSE 11.5 mph 20.7 mph N/A   Clear
5:15 PM 90.3 °F 92.2 °F 64.8 °F 43% 29.74 in 10.0 mi SSE 15.0 mph 24.2 mph N/A   Clear
5:35 PM 90.1 °F 92.3 °F 65.5 °F 44% 29.74 in 10.0 mi South 15.0 mph 19.6 mph N/A   Clear
5:55 PM 90.0 °F 92.0 °F 65.3 °F 44% 29.74 in 10.0 mi South 13.8 mph 19.6 mph N/A   Scattered Clouds
6:15 PM 89.4 °F 91.2 °F 64.9 °F 44% 29.73 in 10.0 mi South 16.1 mph 20.7 mph N/A   Scattered Clouds
6:35 PM 88.3 °F 90.9 °F 66.2 °F 48% 29.72 in 10.0 mi South 15.0 mph 21.9 mph N/A   Clear
6:55 PM 87.4 °F 90.1 °F 66.6 °F 50% 29.72 in 10.0 mi SSE 13.8 mph 23.0 mph N/A   Clear
7:15 PM 86.9 °F 89.9 °F 67.1 °F 52% 29.73 in 10.0 mi South 15.0 mph 18.4 mph N/A   Clear
7:35 PM 86.2 °F 88.8 °F 66.7 °F 52% 29.73 in 10.0 mi SSE 12.7 mph 18.4 mph N/A   Scattered Clouds
7:55 PM 85.1 °F 87.9 °F 67.1 °F 55% 29.74 in 10.0 mi SSE 10.4 mph 18.4 mph N/A   Clear
8:15 PM 84.0 °F 86.8 °F 67.3 °F 57% 29.74 in 10.0 mi SSE 6.9 mph - N/A   Clear
8:35 PM 82.8 °F 85.5 °F 67.5 °F 60% 29.75 in 10.0 mi SSE 6.9 mph - N/A   Clear
8:55 PM 81.9 °F 84.6 °F 67.6 °F 62% 29.77 in 10.0 mi SSE 6.9 mph - N/A   Clear
9:15 PM 81.5 °F 84.1 °F 67.5 °F 62% 29.77 in 10.0 mi SE 9.2 mph - N/A   Clear
9:35 PM 80.4 °F 82.7 °F 66.9 °F 63% 29.78 in 10.0 mi SE 8.1 mph - N/A   Clear
9:55 PM 79.7 °F - 66.2 °F 63% 29.79 in 10.0 mi SSE 9.2 mph 16.1 mph N/A   Clear
10:15 PM 79.0 °F - 66.0 °F 64% 29.82 in 10.0 mi SSE 6.9 mph - N/A   Scattered Clouds
10:35 PM 78.3 °F - 66.4 °F 67% 29.83 in 10.0 mi SE 6.9 mph - N/A   Mostly Cloudy
10:55 PM 77.5 °F - 66.7 °F 69% 29.84 in 10.0 mi SE 5.8 mph - N/A   Mostly Cloudy
11:15 PM 77.2 °F - 66.7 °F 70% 29.84 in 10.0 mi ESE 4.6 mph - N/A   Overcast
11:35 PM 76.5 °F - 66.6 °F 71% 29.84 in 10.0 mi SE 5.8 mph - N/A   Mostly Cloudy
11:55 PM 76.1 °F - 66.2 °F 71% 29.85 in 10.0 mi SSE 6.9 mph - N/A   Mostly Cloudy